map of CND home
CND - Airport
Location
City:  Constanta, Constanta, Romania
Name:Mihail Kogainiceanu International Airport
ICAO:LRCK
IATA:CND

Details
Type:Airport (Aerodrome, Airfield)
Use:Public/Civil, Military, International (customs port of entry)
Latitude:4421'44"N (44.362222)
Longitude:2829'18"E (28.488333)
Datum:WGS 1984
Elevation:353 ft (108 m)
Variation:5.97E (WMM2015 magnetic declination)
0.11 annual change
Runways:1
Longest:11483 × 148 ft (3500 × 45 m), paved

Time
Time Zone:UTC+2 (DST+3)
Local Time:

Weather
METAR:LRCK 211130Z 33007KT 290V360 CAVOK 21/03 Q1019 NOSIG
TAF:LRCK 210500Z 2106/2206 33010KT CAVOK
BECMG 2115/2117 21005KT
BECMG 2122/2124 28011KT

Related Locations
Nearby:
Farthest:CHT: 11203 mi / 18030 km
Waitangi [Tuuta], CIT, NZ

Find:

   beyond  
but within

Other Information
Maps:
NOTAMs:
Links:
Sources:

  
flag of Romania   

Airport Diagram

Airport diagram for CND

Larger airport diagram (OBSOLETE) from NGA

Sectional Chart

Flight Planning
at skyvector.com

Satellite Image

Google Maps Satellite view

 

Copyright © 2004-2018 Karl L. Swartz. All rights reserved.
The Great Circle Mapper name and logo are trademarks of the Great Circle Mapper.
All other trademarks mentioned herein belong to their respective owners.
Please see credits for attibutions and further copyright information.

  Follow gcmap on Facebook Follow gcmap on Twitter Follow gcmap on Google+ GCmap on LinkedIn

hCard Microformat

Geo Microformat